AAR244 KDFW-KSEA

Flight info

Callsign AAR244
Flight time N/A
Altitude 40000
Route HUDAD2 HUDAD DCT PNH DCT ALS DCT JNC J15 BOI DCT PDT CHINS5
Aircraft B744/H-SDE1E2E3FGHIJ3J5M1P1RWXYZ/LB1D1

Departure

Time 2026-05-06 00:57
Airport Dallas Fort Worth International Airport (KDFW)

Arrival

Time N/A
Airport Seattle–Tacoma International Airport (KSEA)
Time Latitude Longitude Altitude Speed Heading
2026-05-06 00:45 32.89687 -97.06050 621 ft 3 kts 12°
2026-05-06 00:45 32.89672 -97.06055 621 ft 3 kts 43°
2026-05-06 00:45 32.89662 -97.06069 621 ft 3 kts 75°
2026-05-06 00:46 32.89659 -97.06091 621 ft 3 kts 89°
2026-05-06 00:46 32.89659 -97.06111 621 ft 1 kts 91°
2026-05-06 00:46 32.89659 -97.06117 621 ft 0 kts 91°
2026-05-06 00:51 32.89657 -97.06016 621 ft 18 kts 91°
2026-05-06 00:51 32.89657 -97.05873 621 ft 17 kts 89°
2026-05-06 00:51 32.89721 -97.05784 621 ft 16 kts
2026-05-06 00:52 32.89829 -97.05783 621 ft 15 kts 360°
2026-05-06 00:52 32.89930 -97.05783 621 ft 14 kts 360°
2026-05-06 00:52 32.90026 -97.05783 621 ft 16 kts
2026-05-06 00:52 32.90180 -97.05784 621 ft 23 kts 360°
2026-05-06 00:53 32.90336 -97.05783 621 ft 22 kts
2026-05-06 00:53 32.90485 -97.05782 621 ft 21 kts 360°
2026-05-06 00:53 32.90628 -97.05784 621 ft 20 kts 359°
2026-05-06 00:53 32.90764 -97.05783 621 ft 19 kts
2026-05-06 00:54 32.90894 -97.05782 621 ft 18 kts 360°
2026-05-06 00:54 32.91010 -97.05755 621 ft 18 kts 65°
2026-05-06 00:54 32.91017 -97.05615 621 ft 17 kts 90°
2026-05-06 00:54 32.91017 -97.05480 621 ft 16 kts 90°
2026-05-06 00:55 32.91018 -97.05354 621 ft 15 kts 89°
2026-05-06 00:55 32.91019 -97.05235 621 ft 14 kts 90°
2026-05-06 00:55 32.91018 -97.05124 621 ft 13 kts 91°
2026-05-06 00:55 32.90965 -97.05074 621 ft 7 kts 182°
2026-05-06 00:56 32.90900 -97.05072 621 ft 27 kts 179°
2026-05-06 00:56 32.90455 -97.05076 621 ft 102 kts 180°
2026-05-06 00:56 32.89494 -97.05081 622 ft 172 kts 181°
2026-05-06 00:56 32.88251 -97.05100 1180 ft 178 kts 183°
2026-05-06 00:57 32.86983 -97.05132 1931 ft 186 kts 183°
2026-05-06 00:57 32.85710 -97.05291 2731 ft 182 kts 192°
2026-05-06 00:57 32.84451 -97.05654 3663 ft 191 kts 197°
2026-05-06 00:57 32.83153 -97.06114 5104 ft 200 kts 199°
2026-05-06 00:58 32.81775 -97.06623 6270 ft 216 kts 200°
2026-05-06 00:58 32.80263 -97.07158 7127 ft 241 kts 199°
2026-05-06 00:58 32.78614 -97.07942 7765 ft 268 kts 216°
2026-05-06 00:58 32.77350 -97.09559 8831 ft 272 kts 238°
2026-05-06 00:59 32.76626 -97.11597 10354 ft 264 kts 252°
2026-05-06 00:59 32.76339 -97.13787 11589 ft 277 kts 266°
2026-05-06 00:59 32.76465 -97.16151 12448 ft 299 kts 273°
2026-05-06 00:59 32.76747 -97.18731 12946 ft 332 kts 274°
2026-05-06 01:00 32.77010 -97.21608 13254 ft 368 kts 273°
2026-05-06 01:00 32.77630 -97.24704 13717 ft 400 kts 285°
2026-05-06 01:00 32.78700 -97.27788 15117 ft 402 kts 290°
2026-05-06 01:00 32.79948 -97.30759 16655 ft 403 kts 292°
2026-05-06 01:01 32.81302 -97.33700 17860 ft 408 kts 293°
2026-05-06 01:01 32.82684 -97.36675 18934 ft 413 kts 292°
2026-05-06 01:01 32.84060 -97.39692 20002 ft 417 kts 292°
2026-05-06 01:01 32.85449 -97.42721 21027 ft 419 kts 292°
2026-05-06 01:02 32.86832 -97.45790 21928 ft 423 kts 292°
2026-05-06 01:02 32.88217 -97.48901 22808 ft 427 kts 291°
2026-05-06 01:02 32.89603 -97.52029 23659 ft 430 kts 291°
2026-05-06 01:02 32.90997 -97.55185 24450 ft 432 kts 291°
2026-05-06 01:03 32.92401 -97.58367 25155 ft 436 kts 291°
2026-05-06 01:03 32.93817 -97.61580 25762 ft 440 kts 291°
2026-05-06 01:03 32.95242 -97.64815 26348 ft 443 kts 291°
2026-05-06 01:03 32.96680 -97.68080 26936 ft 446 kts 291°
2026-05-06 01:04 32.98118 -97.71343 27663 ft 443 kts 291°
2026-05-06 01:04 32.99504 -97.74573 28602 ft 434 kts 289°
2026-05-06 01:04 33.00757 -97.77816 29382 ft 429 kts 287°
2026-05-06 01:04 33.01947 -97.81069 30012 ft 427 kts 287°
2026-05-06 01:05 33.03131 -97.84305 30625 ft 425 kts 287°
2026-05-06 01:05 33.04317 -97.87513 31347 ft 420 kts 287°
2026-05-06 01:05 33.05516 -97.90675 32025 ft 416 kts 287°
2026-05-06 01:05 33.06698 -97.93807 32667 ft 412 kts 287°
2026-05-06 01:06 33.07861 -97.96913 33277 ft 408 kts 287°
2026-05-06 01:06 33.09010 -97.99998 33841 ft 405 kts 286°
2026-05-06 01:06 33.10152 -98.03070 34299 ft 404 kts 286°
2026-05-06 01:06 33.11288 -98.06132 34726 ft 403 kts 285°